Regional Weather Roundup
Issued by NWS Cleveland, OH

Home | Current Version | Previous Version | Graphics & Text | Print | Product List | Glossary On
Versions: 1 2 3 4 5 6 7 8 9 10 11 12 13 14 15 16 17 18 19 20 21 22 23 24 25 26 27 28 29 30 31 32 33 34 35 36 37 38 39 40 41 42 43 44 45 46 47 48 49 50
000
ASUS41 KCLE 262100
RWRCLE
OHIO REGIONAL WEATHER ROUNDUP
NATIONAL WEATHER SERVICE WILMINGTON, OH
400 PM EST MON JAN 26 2015

NOTE: "FAIR" INDICATES FEW OR NO CLOUDS BELOW 12,000 FEET WITH NO
SIGNIFICANT WEATHER AND/OR OBSTRUCTIONS TO VISIBILITY.

OHZ001>008-015>018-024>027-034-035-043-044-262200-
   NORTHWEST OHIO

CITY           SKY/WX    TMP DP  RH WIND       PRES   REMARKS
DEFIANCE       MOSUNNY   24   8  50 CALM      29.91R
FINDLAY        SUNNY     20  11  68 NW6       29.88S WCI  12
TOLEDO EXPRESS MOSUNNY   23  11  60 N6        29.89S WCI  16
TOLEDO EXEC    SUNNY     22  10  60 E7        29.91R WCI  13
LIMA           MOSUNNY   18  10  71 N6        29.88R WCI  10
$$

OHZ009>014-019>023-028>033-038-089-262200-
   NORTHEAST OHIO

CITY           SKY/WX    TMP DP  RH WIND       PRES   REMARKS
CLE-HOPKINS    FLURRIES  20  15  81 N15       29.88R WCI   6
CLE-LAKEFRONT  CLOUDY    22  16  78 N13       29.86R WCI  10
CUY CO. ARPT   CLOUDY    21  19  93 NE17      29.84R WCI   7
LORAIN-ELYRIA  LGT SNOW  19  14  81 N15       29.87R WCI   5
ASHTABULA      CLOUDY    20  15  81 VRB7      29.82R WCI  11
AKRON-CANTON   CLOUDY    24  18  77 NW14      29.78R WCI  12
WOOSTER        NOT AVBL
MANSFIELD      CLOUDY    18  12  77 NW17      29.82R WCI   3
YOUNGSTOWN     CLOUDY    24  16  71 NW14      29.76R WCI  12
$$

OHZ042-051>053-060>062-070>072-077>081-262200-
  SOUTHWEST OHIO

CITY           SKY/WX    TMP DP  RH WIND       PRES   REMARKS
CINC-COVINGTON MOSUNNY   30  19  63 NW10      29.88R WCI  21
CINC-LUNKEN    MOSUNNY   30  18  60 NW9       29.91R WCI  22
HAMILTON       SUNNY     28  17  63 NW10      29.91R WCI  19
DAYTON         NOT AVBL
WRIGHT-PAT AFB NOT AVBL
DAYTON GENERAL MOSUNNY   22  14  71 NW8       29.88R WCI  12
WILMINGTON     MOSUNNY   21  14  74 NW9       29.86R WCI  11
$$

OHZ036-037-039>041-045>050-054>059-063>069-073>076-082>088-262200-
  CENTRAL AND SOUTHEAST OHIO

CITY           SKY/WX    TMP DP  RH WIND       PRES   REMARKS
COLUMBUS       PTSUNNY   20  12  71 N14       29.86R WCI   7
OSU AIRPORT    MOSUNNY   19  11  70 N14       29.86R WCI   6
BOLTON FIELD   MOSUNNY   19  12  73 NW14      29.87R WCI   6
RICKENBACK AFB NOT AVBL
NEWARK         CLOUDY    24  16  71 NW13      29.83R WCI  12
MARION         FAIR      17   9  70 N12       29.87R WCI   4
LANCASTER      CLOUDY    22  16  78 NW7       29.85R WCI  13
ZANESVILLE     CLOUDY    25  19  78 NW10      29.80R WCI  15
NEW PHILLY     CLOUDY    25  19  78 NW12      29.80R WCI  14
$$



USA.gov is the U.S. government's official web portal to all federal, state and local government web resources and services.